Vertical_Velocity
6 5 7 -0 1 0 -1 -5 2 4 -2 2 4 -2 -1 -0 -0 1 0 1 0 -2 1 -1 -4 -3 -3 -2 -1 2 1 0
9 13 2 -5 -3 5 -4 -2 1 2 1 0 0 3 -0 1 -1 1 1 -2 -2 1 1 -2 1 -3 -4 1 1 0 2 3
16 20 -0 -2 -4 -2 -1 -3 -6 4 2 2 -0 -1 -1 1 0 -0 3 -1 -4 1 -1 -0 3 3 -1 -5 -2 -1 -2 1
5 5 -6 3 -9 -14 4 -5 -7 0 4 3 -1 0 -5 -5 -2 0 2 2 -2 -3 0 -2 3 3 2 -0 -0 0 -1 1
-3 -4 2 -5 -3 -11 -4 -2 -9 -1 5 2 2 4 -1 0 0 4 -1 2 4 -1 0 3 -0 1 2 2 2 -2 0 1
13 9 6 11 9 -8 -3 6 -6 -3 3 4 4 3 -2 1 -2 -4 0 1 4 4 3 2 2 1 -6 1 4 3 1 2
-7 1 21 2 6 -8 4 -1 -3 -0 2 4 1 2 3 4 3 -1 1 7 2 3 2 2 -0 2 1 -0 -0 1 -1 -5
-3 5 -5 6 -3 -15 -3 4 -2 3 2 4 3 2 6 2 1 0 -2 -1 1 2 8 -2 6 1 1 4 1 -1 2 1
-1 10 -5 -1 1 0 -9 4 4 8 8 6 1 2 2 3 4 6 -5 7 -1 12 -1 5 -3 2 -1 1 3 -2 -2 0
9 5 -6 5 7 4 1 8 4 7 6 6 1 5 3 3 2 3 4 -3 -1 -9 5 -8 4 -6 3 1 1 0 -2 -0
-1 2 4 -0 -0 -1 -5 2 5 6 3 6 -2 4 4 -5 2 3 -3 5 -3 7 1 0 2 1 2 -1 -3 -1 -0 -1
9 4 0 -5 -1 -2 -0 3 -1 -2 6 4 2 2 -3 1 2 -0 3 0 2 -0 1 2 0 -1 -1 -0 -2 -5 0 2
8 15 -3 -13 -12 -5 -6 0 1 -3 -2 -3 1 6 5 4 4 2 4 1 5 1 3 2 -1 -2 -3 -1 -5 -1 0 0
5 -10 -4 -13 -13 -10 1 -4 3 5 5 -1 -5 -3 -2 3 3 5 4 4 1 1 1 1 0 1 0 -6 0 0 1 -0
17 1 -6 -6 1 -6 1 -5 -4 -2 6 5 6 1 -1 -0 1 2 2 0 -3 1 2 -2 -1 -1 -6 -0 -1 1 0 -0
13 -3 -8 0 2 3 -3 2 -3 -1 2 2 1 7 6 3 4 4 5 3 2 5 -1 -1 0 -7 1 -1 1 -1 2 1
-8 -3 -12 -12 -9 2 4 0 -2 2 0 0 4 -0 1 2 4 3 4 -0 5 4 3 2 -13 -5 1 0 -1 -1 -0 2
-3 3 -17 -8 -5 1 -3 4 2 -1 3 6 4 9 7 4 4 8 1 4 4 3 3 -2 -11 1 -6 -2 -1 -1 -2 1
-1 -2 -13 18 -2 7 3 -3 -2 -0 5 1 4 7 4 3 7 5 5 -0 3 2 1 -16 -2 -3 -4 -2 -0 -1 -2 -1
Height
3121 3122 3124 3126 3126 3122 3124 3127 3129 3129 3130 3131 3131 3133 3134 3135 3136 3136 3137 3139 3140 3141 3141 3141 3141 3140 3140 3140 3141 3142 3142 3141
3114 3115 3116 3119 3122 3118 3117 3121 3124 3124 3125 3126 3128 3130 3130 3130 3131 3132 3133 3134 3135 3136 3136 3137 3137 3136 3137 3137 3138 3138 3137 3135
3107 3108 3108 3110 3115 3112 3112 3115 3118 3119 3121 3121 3123 3124 3124 3126 3127 3127 3128 3129 3130 3131 3132 3133 3133 3132 3132 3133 3133 3133 3133 3129
3099 3101 3102 3104 3107 3108 3106 3108 3112 3113 3115 3116 3116 3117 3118 3119 3121 3122 3123 3123 3124 3125 3126 3128 3128 3127 3126 3126 3125 3124 3123 3123
3093 3092 3094 3097 3100 3102 3101 3101 3104 3105 3107 3109 3109 3111 3112 3114 3116 3117 3117 3117 3117 3118 3119 3120 3120 3120 3119 3118 3117 3116 3115 3115
3085 3085 3086 3089 3092 3093 3094 3095 3096 3097 3098 3101 3102 3104 3105 3107 3109 3110 3111 3112 3111 3112 3112 3112 3112 3112 3112 3111 3111 3108 3106 3105
3073 3075 3078 3079 3083 3084 3085 3086 3089 3090 3091 3093 3095 3096 3097 3099 3100 3101 3103 3104 3104 3104 3104 3105 3105 3104 3105 3104 3103 3101 3098 3095
3064 3065 3065 3069 3072 3074 3076 3078 3080 3083 3084 3085 3087 3088 3089 3090 3091 3093 3093 3094 3096 3098 3098 3097 3098 3097 3096 3096 3094 3092 3090 3086
3053 3054 3057 3059 3061 3065 3068 3069 3071 3072 3075 3077 3078 3079 3080 3081 3083 3084 3083 3086 3087 3089 3088 3088 3090 3089 3088 3087 3086 3083 3081 3077
3047 3048 3048 3050 3054 3058 3060 3060 3061 3062 3065 3066 3067 3068 3070 3072 3074 3075 3077 3078 3080 3082 3081 3081 3081 3080 3080 3079 3077 3074 3070 3067
3038 3040 3042 3044 3048 3050 3052 3052 3053 3054 3054 3056 3058 3059 3061 3064 3066 3067 3068 3071 3072 3072 3074 3073 3073 3072 3072 3070 3067 3065 3061 3057
3032 3033 3035 3037 3040 3041 3043 3044 3045 3046 3047 3047 3048 3050 3054 3057 3058 3060 3063 3063 3065 3066 3066 3066 3064 3063 3063 3060 3057 3055 3051 3045
3024 3025 3027 3029 3032 3033 3033 3035 3035 3038 3040 3040 3040 3041 3045 3048 3050 3053 3055 3056 3057 3059 3058 3056 3056 3054 3053 3051 3048 3044 3039 3033
3015 3017 3019 3021 3022 3024 3023 3026 3028 3028 3031 3032 3033 3035 3038 3041 3043 3046 3047 3049 3050 3050 3049 3049 3048 3046 3043 3041 3038 3033 3028 3023
3006 3007 3009 3011 3012 3015 3016 3018 3019 3018 3018 3022 3024 3028 3030 3032 3036 3038 3040 3041 3042 3041 3041 3041 3039 3037 3035 3031 3028 3023 3018 3013
2997 2999 2999 3001 3003 3007 3009 3009 3011 3011 3011 3013 3016 3020 3022 3024 3028 3030 3032 3033 3033 3032 3032 3032 3029 3028 3026 3022 3018 3013 3009 3004
2987 2990 2990 2993 2996 2998 3000 3001 3003 3004 3003 3006 3009 3012 3014 3017 3020 3022 3023 3024 3024 3023 3023 3020 3020 3021 3017 3013 3009 3004 2999 2996
2977 2980 2980 2983 2986 2988 2990 2992 2993 2994 2994 2997 3001 3003 3006 3008 3011 3013 3014 3015 3015 3014 3013 3011 3011 3011 3009 3005 3000 2995 2992 2989
2967 2967 2971 2974 2976 2980 2981 2982 2982 2982 2983 2987 2990 2994 2997 3000 3003 3004 3004 3005 3005 3004 3003 3004 3004 3003 3000 2996 2992 2988 2985 2983